Other Public Products
Issued by NWS Charleston, SC

Current Version | Previous Version | Graphics & Text | Print | Product List | Glossary On
Versions: 1 2 3 4 5 6 7 8 9 10 11 12 13 14 15 16 17 18 19 20 21 22 23 24 25 26 27 28 29 30 31 32 33 34 35 36 37 38 39 40 41 42 43 44 45 46 47 48 49 50
531
FPUS82 KCHS 280827
OPUCHS

TEST...KCHS/KSAV Gateway Observations...TEST
National Weather Service Charleston SC
400 AM EDT SUN MAY 28 2017

NOTE: "fair" indicates few or no clouds below 12,000 feet with no
significant weather and/or obstructions to visibility.

SCZ050-WAZ558-NCZ071-TXZ119-213-PAZ071-DCZ001-FLZ074-172-MI076-
NYZ176-178-MAZ016-IL014-TNZ027-NJZ106-GAZ044-MD014-280900-

...Gateway Observations for Charleston International...

CITY           SKY/WX    TMP DP  RH WIND       PRES   REMARKS
Chas Airport   PTCLDY    72  68  87 SW6       29.90F
Seattle        CLEAR     65  48  54 N7        30.07R
Charlotte      LGT RAIN  69  64  84 CALM      29.86F
Dallas DFW     MOCLDY    81  73  76 S14       29.71F
Dallas Love    CLOUDY    81  72  74 S13       29.72F
Philladelphia  MOCLDY    62  60  93 CALM      29.89R
Wash National  CLOUDY    63  62  97 NE3       29.89R
Baltimore      PTCLDY    59  59 100 CALM      29.88S
Miami          PTCLDY    79  68  69 NW5       29.97F
Detroit        CLOUDY    61  52  72 CALM      29.86R
Newark         PTCLDY    60  57  89 SE3       29.88F
Laguardia      CLEAR     60  56  86 E6        29.89F
J F K          MOCLDY    58  58 100 E3        29.91F
Boston Logan   MOCLDY    56  52  86 SW9       29.92R
Ft. Lauderdale PTCLDY    78  69  73 NW5       29.96F
Chicago O`Hare CLOUDY    60  52  74 CALM      29.78F
Chicago Midway CLOUDY    60  54  80 CALM      29.78F
Houston Bush   CLOUDY    82  74  76 S8        29.86F
Houston Hobby  CLOUDY    79  75  87 S7        29.85F
Nashville      LGT RAIN  65  63  93 S12       29.90F
Atlanta        MOCLDY    69  62  78 S3        29.94F

$$

GAZ044-118-TXZ119-213-NCZ071-DCZ001-MDZ014-506-PAZ021-071-NJZ106-
NYZ176-178-MAZ106-OHZ011-021-055-MIZ076-KYZ091-ILZ014-INZ047-
MNZ060-ONZ431-280900-

...Gateway Observations for Savannah International...

CITY           SKY/WX    TMP DP  RH WIND       PRES   REMARKS
Savannah Arpt  CLOUDY    70  62  76 CALM      29.92F
Atlanta        MOCLDY    69  62  78 S3        29.94F
Charlotte      LGT RAIN  69  64  84 CALM      29.86F
Dallas DFW     MOCLDY    81  73  76 S14       29.71F
Houston Bush   CLOUDY    82  74  76 S8        29.86F
Wash National  CLOUDY    63  62  97 NE3       29.89R
Wash Dulles    CLOUDY    59  57  93 CALM      29.87F
Baltimore      PTCLDY    59  59 100 CALM      29.88S
Philadelphia   MOCLDY    62  60  93 CALM      29.89R
Newark         PTCLDY    60  57  89 SE3       29.88F
Laguardia      CLEAR     60  56  86 E6        29.89F
J F K          MOCLDY    58  58 100 E3        29.91F
Boston         MOCLDY    56  52  86 SW9       29.92R
Pittsburg      FOG       57  57 100 CALM      29.85R VSB 1/4
Akron          CLOUDY    59  51  75 E6        29.85R
Cleveland      MOCLDY    61  50  67 SE5       29.85S
Cincinnati     CLOUDY    62  61  96 S5        29.78F
Columbus       CLOUDY    66  66 100 SE5       29.78F
Detroit        CLOUDY    61  52  72 CALM      29.86R
Chicago O`Hare CLOUDY    60  52  74 CALM      29.78F
Minneapolis    MOCLDY    61  48  62 SW7       29.78F
Indianapolis   CLOUDY    66  62  87 NE5       29.75F
Toronto Canada PTCLDY    55  52  88 NW3       29.88S

$$




USA.gov is the U.S. government's official web portal to all federal, state and local government web resources and services.